#timestamp,LO_Frequency,Hit,StdDev 
1649851215.1,286047013.5,N
1649851235.8,286047014.4,N
1649851255.7,286047014.9,N
1649851275.5,286047016.4,Y
1649851295.4,286047005.5,P
1649851315.2,286047004.8,N
1649851335.0,286047006.8,N
1649851335.9,286047006.8,N
1649851355.8,286047008.6,Y
1649851375.6,286046996.9,P
1649851395.5,286047001.0,N
1649851415.3,286046999.5,N
1649851435.1,286047000.7,N
1649851455.9,286047001.1,N
1649851475.7,286046998.9,N
1649851495.5,286046997.2,N
1649851515.4,286046998.7,N
1649851535.2,286047002.3,N
1649851555.0,286047000.9,N
1649851556.0,286047000.9,N
1649851575.8,286047000.2,N
1649851595.6,286047000.1,N
1649851615.5,286046998.3,N
1649851635.3,286046997.0,N
1649851655.1,286046995.2,N
1649851675.9,286046996.9,N
1649851695.7,286046999.4,N
1649851715.5,286046998.7,N
1649851735.4,286047005.0,N
1649851755.2,286047007.4,N
1649851775.1,286047002.1,N
1649851776.0,286047002.1,N
1649851795.8,286046994.9,N
1649851815.6,286046994.0,N
1649851835.5,286046995.6,N
1649851855.3,286046995.9,N
1649851875.1,286046994.6,N
1649851895.9,286046994.8,N
1649851915.7,286046995.4,N
1649851935.6,286046997.2,N
1649851955.4,286046994.2,N
1649851975.2,286046990.1,Y
1649851995.1,286046993.7,P
1649851996.0,286046993.7,N
1649852015.8,286046990.5,P
1649852035.6,286046993.5,N
1649852055.5,286046993.2,N
1649852075.3,286046991.2,Y
1649852095.2,286046991.9,P
1649852115.9,286046992.3,P
1649852135.7,286046992.1,P
1649852155.6,286046991.9,Y
1649852175.4,286047002.5,P
1649852195.3,286047002.2,N
1649852215.1,286047000.2,N
1649852216.0,286047000.2,N
1649852235.8,286047000.9,N
1649852255.7,286046998.7,N
1649852275.5,286046998.7,N
1649852295.3,286046998.6,N
1649852315.2,286046999.7,N
1649852335.0,286047001.3,N
1649852335.9,286047001.3,N
1649852355.8,286047002.2,N
1649852375.6,286047001.1,N
1649852395.4,286046995.8,N
1649852415.3,286046995.8,N
1649852435.1,286046997.4,N
1649852455.8,286047002.1,N
1649852475.7,286047000.5,N
1649852495.5,286047003.5,N
1649852515.4,286047005.1,N
1649852535.2,286047007.3,N
1649852555.0,286047005.7,N
1649852555.9,286047005.7,N
1649852575.8,286047001.9,N
1649852595.6,286047002.3,N
1649852615.4,286047001.1,N
1649852635.3,286046999.2,N
1649852655.1,286046995.4,N
1649852675.9,286046995.3,N
1649852695.7,286046996.1,N
1649852715.5,286046994.2,N
1649852735.4,286046991.8,N
1649852755.2,286046994.6,N
1649852775.0,286046992.7,N
1649852775.9,286046992.7,N
1649852795.8,286046990.3,N
1649852815.6,286046988.8,N
1649852835.5,286046988.7,N
1649852855.3,286046988.6,N
1649852875.1,286046987.2,N
1649852895.9,286046988.4,N
1649852915.7,286046987.0,N
1649852935.5,286046987.0,N
1649852955.4,286046988.2,N
1649852975.2,286046987.0,N
1649852995.1,286046993.0,N
1649852996.0,286046993.0,N
1649853015.8,286046993.1,N
1649853035.6,286046994.4,N
1649853055.5,286046994.2,N
1649853075.3,286046995.7,N
1649853095.1,286046993.3,N
1649853115.9,286046996.3,N
1649853135.7,286046996.0,N
1649853155.6,286046993.3,N
1649853175.4,286046995.5,N
1649853195.2,286046995.1,N
1649853215.1,286046997.5,N
1649853216.0,286046997.5,N
1649853235.8,286046999.0,N
1649853255.6,286047000.4,N
1649853275.5,286047001.1,N
1649853295.3,286046999.0,N
1649853315.2,286046997.4,N
1649853335.9,286046998.9,N
1649853355.7,286047001.1,N
1649853375.6,286047002.6,N
1649853395.4,286047001.3,N
1649853415.2,286047006.0,N
1649853435.1,286047003.8,N
1649853436.0,286047003.8,N
1649853455.8,286046998.8,N
1649853475.7,286046995.6,N
1649853495.5,286046996.2,N
1649853515.3,286046999.4,N
1649853535.2,286046998.4,N
1649853555.0,286047002.3,N
1649853555.9,286047002.3,N
1649853575.7,286047000.9,N
1649853595.6,286046999.5,N
1649853615.4,286046998.3,N
1649853665.3,286046995.2,E
1649853675.2,286046997.3,N
1649853695.0,286047001.2,P
1649853695.9,286047001.2,N
1649853715.8,286046998.2,N
1649853735.6,286047000.7,N
1649853755.5,286046998.2,N
1649853775.3,286046998.7,N
1649853795.1,286047001.1,N
1649853815.9,286046994.9,Y
1649853835.7,286046997.1,P
1649853855.6,286046995.0,P
1649853875.4,286046995.7,N
1649853895.2,286046993.4,Y
1649853915.1,286046997.0,P
1649853916.0,286046997.0,P
1649853935.8,286046997.5,P
1649853955.7,286047001.0,Y
1649853975.5,286047003.9,P
1649853995.3,286047001.3,N
1649854015.2,286047000.5,N
1649854035.0,286046998.5,N
1649854035.9,286046998.5,N
1649854055.7,286046999.2,N
1649854075.6,286046999.6,N
1649854095.4,286046999.7,N
1649854115.3,286047003.8,N
1649854135.1,286047005.6,N
1649854155.8,286047004.7,N
1649854175.7,286047006.5,N
1649854195.5,286047005.5,N
1649854215.4,286047004.0,N
1649854235.2,286047002.1,N
1649854255.0,286047000.0,N
1649854255.9,286047000.0,N
1649854275.8,286046998.5,N
1649854295.6,286047000.6,N
1649854315.4,286047001.5,N
1649854335.3,286047005.6,N
1649854355.1,286047006.3,N
1649854375.9,286047009.8,Y
1649854395.7,286047008.2,P
1649854415.5,286047006.1,N
1649854435.4,286047005.5,N
1649854455.2,286047004.4,N
1649854475.0,286047001.6,N
1649854475.9,286047001.6,N
1649854495.8,286047002.7,N
1649854515.6,286047000.7,N
1649854535.5,286046999.1,N
1649854555.3,286046997.8,N
1649854575.1,286046993.5,N
1649854595.9,286046992.2,N
1649854615.7,286046992.8,N
1649854635.5,286046990.5,N
1649854655.4,286046990.8,N
1649854675.2,286046991.4,N
1649854695.0,286046992.6,N
1649854696.0,286046992.6,N
1649854715.8,286046992.1,N
1649854735.6,286046991.9,N
1649854755.5,286046990.9,N
1649854775.3,286046992.8,N
1649854795.1,286046988.9,N
